Hourly Data Report for June 24, 2017

ATIKOKAN (AUT)
ONTARIO

48°45'40.000" N
91°37'41.000" W
389.30 m
6020LPQ
71747
WCH

Download Data

Hourly Data (June 2017)
Hourly Data Report for June 24, 2017
TIME
LST
Temp Definition
°C
Dew Point Definition
°C
Rel Hum Definition
%
Precip. Amount Definition
mm

Wind Dir Definition
10's deg

Wind Spd Definition
km/h
Visibility Definition
km
Stn Press Definition
kPa
Hmdx Definition


Wind Chill Definition


Weather Definition


00:00 13.1 10.8 86 0.0 30 8   96.36     LegendNANA
01:00 12.4 10.5 88 0.2 26 6   96.34     LegendNANA
02:00 12.4 10.7 89 0.0 28 4   96.33     LegendNANA
03:00 12.1 10.5 91 0.0 30 7   96.34     LegendNANA
04:00 11.9 10.4 90 0.2 29 8   96.38     LegendNANA
05:00 11.9 10.4 91 0.2 30 5   96.40     LegendNANA
06:00 11.9 10.6 92 1.3 28 4   96.43     LegendNANA
07:00 11.8 10.6 92 3.9 28 4   96.46     LegendNANA
08:00 11.9 10.6 92 2.1 31 3   96.49     LegendNANA
09:00 12.0 10.6 91 3.7 31 7   96.53     LegendNANA
10:00 11.9 10.6 92 3.3 30 7   96.56     LegendNANA
11:00 12.7 11.0 90 1.6 28 5   96.58     LegendNANA
12:00 13.2 11.6 90 0.3 32 5   96.62     LegendNANA
13:00 12.9 11.1 89 0.5 30 5   96.67     LegendNANA
14:00 13.0 11.2 88 1.0 26 4   96.72     LegendNANA
15:00 13.3 11.1 87 0.4 28 4   96.75     LegendNANA
16:00 13.3 11.3 88 0.6 29 5   96.77     LegendNANA
17:00 14.0 12.1 88 0.5 28 3   96.80     LegendNANA
18:00 13.5 11.3 87 0.2 3 2   96.85     LegendNANA
19:00 12.4 10.9 90 1.5 30 3   96.85     LegendNANA
20:00 12.3 11.0 92 0.0 33 4   96.87     LegendNANA
21:00 12.0 10.7 92 0.2 35 3   96.94     LegendNANA
22:00 11.4 10.0 92 0.0 33 5   96.94     LegendNANA
23:00 11.4 10.1 91 0.0 33 4   96.96     LegendNANA

Notes on Data Quality.

Legend

  • E = Estimated
  • M = Missing
  • NA = Not Available*
  • [empty] = Indicates an unobserved value
Date modified: